Location: Bay Harbour
(38.2612°N, 75.2555°W)
Time: 16:41:10
(UTC+00:00)

CZ-2D R/B - Pass Details

Date: 29 October 2020
Orbit: 521 x 538 km, 97.4° (Epoch: 23 November)

Event Time Altitude Azimuth Distance (km) Brightness Sun altitude
Rises 23:39:15 0° 176° (S) 2,647 6.8 -19.2°
Reaches altitude 10° 23:41:22 10° 180° (S) 1,760 5.9 -19.6°
Maximum altitude 23:45:07 57° 260° (W) 619 3.8 -20.3°
Drops below altitude 10° 23:48:52 10° 340° (NNW) 1,767 6.1 -21.0°
Sets 23:51:00 0° 344° (NNW) 2,658 7.0 -21.5°
